"2005/01/01", 69, 94, 32
"2005/01/02", 62, 84, 32
"2005/01/03", 67, 86, 50
"2005/01/04", 61, 83, 34
"2005/01/05", 47, 64, 32
"2005/01/06", 71, 90, 55
"2005/01/07", 72, 90, 51
"2005/01/08", 48, 78, 26
"2005/01/09", 52, 74, 32
"2005/01/10", 55, 76, 31
"2005/01/11", 58, 86, 29
"2005/01/12", 58, 88, 24
"2005/01/13", 39, 63, 27
"2005/01/14", 66, 83, 36
"2005/01/15", 87, 95, 69
"2005/01/16", 85, 95, 60
"2005/01/17", 60, 83, 37
"2005/01/18", 56, 78, 37
"2005/01/19", 80, 93, 66
"2005/01/20", 62, 95, 26
"2005/01/21", 50, 68, 31
"2005/01/22", 43, 72, 26
"2005/01/23", 62, 77, 47
"2005/01/24", 77, 89, 55
"2005/01/25", 65, 90, 30
"2005/01/26", 84, 95, 61
"2005/01/27", 65, 89, 46
"2005/01/28", 76, 89, 61
"2005/01/29", 82, 93, 65
"2005/01/30", 49, 93, 23
"2005/01/31", 46, 67, 33
"2005/02/01", 52, 79, 20
"2005/02/02", 44, 71, 25
"2005/02/03", 45, 68, 26
"2005/02/04", 41, 70, 26
"2005/02/05", 47, 81, 23
"2005/02/06", 48, 72, 29
"2005/02/07", 64, 87, 32
"2005/02/08", 90, 95, 78
"2005/02/09", 84, 97, 60
"2005/02/10", 74, 95, 40
"2005/02/11", 41, 72, 21
"2005/02/12", 46, 75, 21
"2005/02/13", 70, 85, 46
"2005/02/14", 55, 89, 23
"2005/02/15", 65, 85, 33
"2005/02/16", 85, 93, 66
"2005/02/17", 79, 92, 57
"2005/02/18", 63, 76, 45
"2005/02/19", 88, 96, 57
"2005/02/20", 82, 96, 62
"2005/02/21", 72, 91, 36
"2005/02/22", 53, 87, 20
"2005/02/23", 53, 86, 19
"2005/02/24", 71, 93, 36
"2005/02/25", 86, 95, 74
"2005/02/26", 55, 94, 23
"2005/02/27", 50, 76, 24
"2005/02/28", 70, 85, 39
"2005/03/01", 50, 78, 29
"2005/03/02", 55, 86, 28
"2005/03/03", 72, 88, 47
"2005/03/04","*","*","*"
"2005/03/05","*","*","*"
"2005/03/06","*","*","*"
"2005/03/07","*","*","*"
"2005/03/08","*","*","*"
"2005/03/09", 77, 95, 62
"2005/03/10", 71, 80, 58
"2005/03/11", 92, 98, 77
"2005/03/12", 80, 98, 41
"2005/03/13", 36, 62, 15
"2005/03/14", 45, 76, 14
"2005/03/15", 65, 81, 29
"2005/03/16", 67, 84, 33
"2005/03/17", 85, 96, 76
"2005/03/18", 55, 91, 18
"2005/03/19", 42, 76, 20
"2005/03/20", 64, 83, 42
"2005/03/21", 54, 80, 18
"2005/03/22", 74, 92, 55
"2005/03/23", 92, 98, 81
"2005/03/24", 81, 94, 64
"2005/03/25", 48, 90, 20
"2005/03/26", 51, 79, 26
"2005/03/27", 58, 84, 29
"2005/03/28", 92, 97, 79
"2005/03/29", 82, 98, 39
"2005/03/30", 44, 74, 21
"2005/03/31", 59, 82, 28
"2005/04/01", 54, 92, 17
"2005/04/02", 67, 81, 53
"2005/04/03", 79, 94, 41
"2005/04/04", 76, 92, 55
"2005/04/05", 72, 94, 39
"2005/04/06", 62, 95, 26
"2005/04/07", 65, 85, 43
"2005/04/08", 67, 90, 14
"2005/04/09", 61, 86, 32
"2005/04/10", 75, 85, 52
"2005/04/11", 85, 94, 66
"2005/04/12", 85, 94, 68
"2005/04/13", 90, 96, 83
"2005/04/14", 75, 98, 35
"2005/04/15", 71, 92, 29
"2005/04/16", 71, 91, 55
"2005/04/17", 63, 91, 27
"2005/04/18", 56, 78, 33
"2005/04/19", 77, 90, 64
"2005/04/20", 88, 94, 80
"2005/04/21", 86, 97, 58
"2005/04/22", 65, 92, 22
"2005/04/23", 44, 71, 20
"2005/04/24", 66, 81, 51
"2005/04/25", 76, 92, 58
"2005/04/26", 87, 96, 77
"2005/04/27", 75, 97, 41
"2005/04/28", 68, 90, 47
"2005/04/29", 68, 83, 44
"2005/04/30", 49, 73, 24
"2005/05/01", 76, 93, 55
"2005/05/02", 80, 97, 51
"2005/05/03", 53, 80, 16
"2005/05/04", 64, 86, 40
"2005/05/05", 73, 92, 50
"2005/05/06", 80, 95, 61
"2005/05/07", 91, 96, 80
"2005/05/08", 81, 96, 65
"2005/05/09", 88, 97, 74
"2005/05/10", 53, 85, 19
"2005/05/11", 68, 80, 54
"2005/05/12", 83, 91, 71
"2005/05/13", 80, 92, 71
"2005/05/14", 77, 90, 63
"2005/05/15", 78, 92, 38
"2005/05/16", 58, 86, 32
"2005/05/17", 81, 97, 66
"2005/05/18", 79, 97, 58
"2005/05/19", 76, 85, 60
"2005/05/20", 55, 82, 36
"2005/05/21", 69, 93, 33
"2005/05/22", 75, 89, 54
"2005/05/23", 80, 95, 58
"2005/05/24", 82, 96, 57
"2005/05/25", 77, 94, 49
"2005/05/26", 79, 96, 43
"2005/05/27", 82, 97, 60
"2005/05/28", 79, 93, 58
"2005/05/29", 91, 97, 82
"2005/05/30", 92, 96, 86
"2005/05/31", 81, 95, 62
"2005/06/01", 79, 95, 57
"2005/06/02", 83, 96, 59
"2005/06/03", 91, 96, 80
"2005/06/04", 89, 96, 79
"2005/06/05", 83, 96, 61
"2005/06/06", 80, 93, 60
"2005/06/07", 85, 92, 71
"2005/06/08", 79, 94, 58
"2005/06/09", 82, 92, 64
"2005/06/10", 93, 97, 86
"2005/06/11", 86, 97, 71
"2005/06/12", 86, 97, 64
"2005/06/13", 88, 96, 76
"2005/06/14", 89, 97, 82
"2005/06/15", 94, 96, 90
"2005/06/16", 90, 96, 81
"2005/06/17", 86, 95, 74
"2005/06/18", 94, 98, 87
"2005/06/19", 89, 98, 69
"2005/06/20", 85, 94, 63
"2005/06/21", 80, 93, 53
"2005/06/22", 90, 96, 77
"2005/06/23", 90, 96, 76
"2005/06/24", 85, 96, 62
"2005/06/25", 81, 95, 51
"2005/06/26", 83, 95, 61
"2005/06/27", 82, 94, 62
"2005/06/28", 83, 95, 75
"2005/06/29", 88, 96, 77
"2005/06/30", 91, 97, 81
"2005/07/01", 93, 98, 83
"2005/07/02", 90, 96, 78
"2005/07/03", 89, 96, 81
"2005/07/04", 95, 98, 89
"2005/07/05", 91, 97, 82
"2005/07/06", 91, 96, 81
"2005/07/07", 86, 97, 66
"2005/07/08", 87, 97, 75
"2005/07/09", 91, 97, 86
"2005/07/10", 85, 96, 72
"2005/07/11", 88, 96, 72
"2005/07/12", 93, 97, 87
"2005/07/13", 85, 93, 76
"2005/07/14", 95, 97, 87
"2005/07/15", 92, 97, 71
"2005/07/16", 93, 98, 81
"2005/07/17", 88, 96, 72
"2005/07/18", 86, 97, 65
"2005/07/19", 79, 96, 53
"2005/07/20", 71, 88, 48
"2005/07/21", 79, 93, 60
"2005/07/22", 90, 96, 85
"2005/07/23", 84, 92, 71
"2005/07/24", 88, 94, 74
"2005/07/25", 93, 97, 88
"2005/07/26", 92, 97, 82
"2005/07/27", 70, 93, 44
"2005/07/28", 73, 92, 53
"2005/07/29", 88, 95, 74
"2005/07/30", 90, 97, 79
"2005/07/31", 85, 96, 64
"2005/08/01", 88, 96, 70
"2005/08/02", 88, 96, 72
"2005/08/03", 84, 95, 61
"2005/08/04", 86, 95, 66
"2005/08/05", 79, 97, 53
"2005/08/06", 76, 90, 57
"2005/08/07", 78, 91, 59
"2005/08/08", 84, 95, 65
"2005/08/09", 86, 93, 71
"2005/08/10", 89, 96, 78
"2005/08/11", 85, 93, 74
"2005/08/12", 88, 96, 71
"2005/08/13", 90, 95, 80
"2005/08/14", 82, 94, 63
"2005/08/15", 85, 95, 68
"2005/08/16", 86, 95, 75
"2005/08/17", 83, 94, 74
"2005/08/18", 89, 95, 76
"2005/08/19", 77, 93, 56
"2005/08/20", 77, 94, 54
"2005/08/21", 77, 89, 59
"2005/08/22", 81, 91, 67
"2005/08/23", 85, 94, 69
"2005/08/24", 85, 94, 71
"2005/08/25", 91, 95, 86
"2005/08/26", 82, 96, 66
"2005/08/27", 82, 90, 72
"2005/08/28", 78, 87, 70
"2005/08/29", 74, 90, 54
"2005/08/30", 77, 94, 48
"2005/08/31", 77, 95, 62
"2005/09/01", 77, 92, 60
"2005/09/02", 81, 95, 55
"2005/09/03", 79, 93, 42
"2005/09/04", 91, 96, 86
"2005/09/05", 90, 96, 82
"2005/09/06", 93, 95, 92
"2005/09/07", 85, 96, 67
"2005/09/08", 76, 90, 55
"2005/09/09", 81, 91, 74
"2005/09/10", 86, 93, 75
"2005/09/11", 88, 96, 67
"2005/09/12", 83, 96, 63
"2005/09/13", 86, 96, 68
"2005/09/14", 80, 95, 62
"2005/09/15", 79, 91, 66
"2005/09/16", 70, 85, 58
"2005/09/17", 78, 90, 64
"2005/09/18", 84, 95, 65
"2005/09/19", 85, 96, 65
"2005/09/20", 84, 96, 67
"2005/09/21", 79, 88, 65
"2005/09/22", 81, 89, 71
"2005/09/23", 85, 91, 74
"2005/09/24", 92, 95, 85
"2005/09/25", 81, 93, 62
"2005/09/26", 74, 80, 67
"2005/09/27", 75, 84, 65
"2005/09/28", 72, 83, 53
"2005/09/29", 77, 88, 59
"2005/09/30", 75, 88, 59
"2005/10/01", 74, 95, 45
"2005/10/02", 79, 94, 56
"2005/10/03", 74, 93, 58
"2005/10/04", 90, 96, 68
"2005/10/05", 91, 96, 81
"2005/10/06", 88, 94, 82
"2005/10/07", 89, 94, 71
"2005/10/08", 90, 96, 78
"2005/10/09", 88, 94, 77
"2005/10/10", 90, 96, 82
"2005/10/11", 83, 91, 73
"2005/10/12", 76, 87, 61
"2005/10/13", 78, 89, 65
"2005/10/14", 84, 94, 68
"2005/10/15", 94, 97, 89
"2005/10/16", 87, 97, 77
"2005/10/17", 89, 96, 76
"2005/10/18", 88, 95, 80
"2005/10/19", 79, 90, 69
"2005/10/20", 73, 87, 52
"2005/10/21", 82, 88, 73
"2005/10/22", 90, 96, 82
"2005/10/23", 66, 93, 33
"2005/10/24", 80, 90, 63
"2005/10/25", 72, 91, 48
"2005/10/26", 77, 91, 64
"2005/10/27", 86, 91, 77
"2005/10/28","*","*","*"
"2005/10/29", 92, 97, 82
"2005/10/30", 75, 93, 62
"2005/10/31", 71, 83, 60
"2005/11/01", 66, 86, 44
"2005/11/02", 78, 91, 51
"2005/11/03", 79, 93, 51
"2005/11/04", 80, 94, 54
"2005/11/05", 80, 95, 51
"2005/11/06", 85, 95, 74
"2005/11/07", 76, 96, 31
"2005/11/08", 54, 80, 27
"2005/11/09", 53, 83, 29
"2005/11/10", 70, 88, 52
"2005/11/11", 85, 94, 71
"2005/11/12", 70, 92, 40
"2005/11/13", 65, 89, 39
"2005/11/14", 83, 93, 72
"2005/11/15", 68, 84, 54
"2005/11/16", 64, 88, 45
"2005/11/17", 59, 82, 39
"2005/11/18", 61, 80, 36
"2005/11/19", 58, 93, 32
"2005/11/20", 61, 88, 35
"2005/11/21", 63, 80, 44
"2005/11/22", 73, 93, 11
"2005/11/23", 79, 91, 66
"2005/11/24", 82, 95, 44
"2005/11/25", 75, 87, 60
"2005/11/26", 85, 96, 60
"2005/11/27", 79, 95, 52
"2005/11/28", 80, 93, 58
"2005/11/29", 69, 96, 29
"2005/11/30", 50, 83, 29
"2005/12/01", 54, 82, 33
"2005/12/02", 69, 87, 50
"2005/12/03", 53, 72, 34
"2005/12/04", 75, 98, 43
"2005/12/05", 66, 97, 29
"2005/12/06", 75, 87, 65
"2005/12/07", 64, 81, 40
"2005/12/08", 75, 92, 55
"2005/12/09", 68, 96, 32
"2005/12/10", 56, 88, 27
"2005/12/11", 54, 79, 35
"2005/12/12", 61, 83, 45
"2005/12/13", 51, 77, 24
"2005/12/14", 55, 84, 22
"2005/12/15", 63, 86, 29
"2005/12/16", 59, 87, 26
"2005/12/17", 53, 88, 23
"2005/12/18", 40, 78, 18
"2005/12/19", 45, 73, 27
"2005/12/20", 60, 85, 35
"2005/12/21", 72, 92, 40
"2005/12/22", 55, 93, 19
"2005/12/23", 46, 84, 21
"2005/12/24", 56, 84, 24
"2005/12/25", 65, 84, 24
"2005/12/26", 45, 76, 22
"2005/12/27", 40, 58, 25
"2005/12/28", 48, 76, 26
"2005/12/29", 57, 79, 35
"2005/12/30", 66, 87, 41
"2005/12/31", 46, 65, 28
